Location: El Bakhil
(32.7726°N, 5.5387°W)
Time: 19:09:19
(UTC+00:00)

Envisat - Pass Details

Date: 02 December 2021
Orbit: 764 x 766 km, 98.2° (Epoch: 18 January)

Event Time Altitude Azimuth Distance (km) Brightness Sun altitude
Rises 05:09:31 0° 14° (NNE) 3,235 6.3 -24.3°
Reaches altitude 10° 05:11:51 10° 16° (NNE) 2,306 5.5 -23.8°
Maximum altitude 05:16:55 74° 101° (ESE) 797 3.1 -22.8°
Drops below altitude 10° 05:21:58 10° 187° (S) 2,291 5.5 -21.7°
Sets 05:24:16 0° 189° (S) 3,213 6.3 -21.2°
